Location: ČR
(50.0000°N, 15.0000°E)
Time: 17:52:59
(UTC+00:00)

Envisat - Pass Details

Date: 30 September 2021
Orbit: 764 x 766 km, 98.2° (Epoch: 22 October)

Event Time Altitude Azimuth Distance (km) Brightness Sun altitude
Rises 02:30:52 0° 33° (NNE) 3,242 7.2 -23.9°
Reaches altitude 10° 02:35:35 10° 73° (ENE) 2,307 6.6 -23.2°
Maximum altitude 02:36:31 10° 83° (E) 2,273 6.4 -23.0°
Drops below altitude 10° 02:37:27 10° 94° (E) 2,304 6.3 -22.9°
Sets 02:42:07 0° 134° (SE) 3,221 6.5 -22.2°
